STARLINK-31948, 59941

Orbit data source: Space-Track

STARLINK-31948, 59941 is a payload satellite owned by SpaceX/Seattle (US) in LEO that was launched on Sat, 01 Jun 2024 UTC via an FALCON 9 launch vehicle from the Air Force Eastern Test Range (AFETR). Payload-class satellites include a variety of spacecraft equipped with specific instruments for various scientific and technological missions. These include communications satellites like Starlink; space stations such as the ISS; scientific satellites like the Hubble; Earth observation satellites from companies like Planet Labs, Umbra, and HawkEye 360; GPS; miniature CubeSats for education and research; and military/defense satellites.

Loading next visibility...
Identifier
59941, 2024-106V
Orbit
LEO
Country
Flag of USUS
Related business
Manufacturer
SpaceX/Seattle
Mission
Operational Commercial Communications
Bus & Motor
STARLINK V2M, Unknown motor
Mass
730 kg wet, ~700 kg dry
Launch date (UTC)
2024-06-01 (1 year ago)
Launch vehicle
FALCON 9
Launch site
Air Force Eastern Test Range (AFETR)
Object type
Payload
Rocket body
Debris
Shape & HBR
Box + 2 Pan, 17.7 m
Radar Cross Section
33.884 m², Large (>1 m²)

Expand to show TLE details & history
Last TLE update: 15 hours ago

TLE from 15 hours ago
0 STARLINK-31948
1 59941U 24106V   25291.04545728  .00002230  00000-0  90551-4 0  9996
2 59941  43.0041  54.8416 0001395 276.3605  83.7088 15.27574438 78743
Epoch: 2025-10-18T01:05Z
TLE epoch observation values (Epoch: 2025-10-18T01:05:27.508Z)
Latitude
-0.00003°
Longitude
11.69484°
Altitude
482.737 km
Speed
7.626 km/s
True Right ascension
03h 39m 21s
True Declination
0° 00' 00"
Sunlit
Object was in full shadow at epoch
Visualization orbit readout
Latitude
Unknown
Longitude
Unknown
Altitude
Unknown
Speed
Unknown
Apparent Right ascension
Unknown
Apparent Declination
Unknown
Sunlit
N/A
Visualization observer readout
Local Sidereal Time
10:35:21
Azimuth
Unknown
Elevation
Unknown
Doppler factor
Unknown
Orbital elements
Apogee altitude
485.968 km
Perigee altitude
484.053 km
Semi-major axis
6,863.147 km
Eccentricity
0.00014
Inclination
43.0041°
RAAN
54.8416°
Arg. of periapsis
276.3605°
True anomaly
83.72469°
Mean anomaly
83.7088°
Eccentric anomaly
83.71674°
Mean motion
3.81732 °/min
Orbital period
94.31 mins
BSTAR
0.000090551
Loading maneuver chart data...
Computing Atmospheric mass density...
Loading historical data...
Loading historical data...
Loading historical data...
Loading historical data...
Loading historical data...
Loading historical data...
Loading historical data...

Documentation

Showing up to 5 results
|